Showing default

HULIANWANG DIGUI-19, 62979

Orbit data source: Space-Track

HULIANWANG DIGUI-19, 62979 is a payload satellite owned by Zhongguo Xingwang (CN) in LEO that was launched on Tue, 11 Feb 2025 UTC via a CHANG ZHENG 8A launch vehicle from the Wenchang Satellite Launch Center (WSC). Payload-class satellites include a variety of spacecraft equipped with specific instruments for various scientific and technological missions. These include communications satellites like Starlink; space stations such as the ISS; scientific satellites like the Hubble; Earth observation satellites from companies like Planet Labs, Umbra, and HawkEye 360; GPS; miniature CubeSats for education and research; and military/defense satellites.

Loading next visibility...
Identifier
62979, 2025-030J
Orbit
LEO
Country
Flag of CNCN / PRC
Related business
Manufacturer
CAST
Mission
Operational Civil Communications
Bus & Motor
XINGWANG C, Unknown motor
Mass
~700 kg wet, ~700 kg dry
Launch date (UTC)
2025-02-11 (1 year ago)
Launch vehicle
CHANG ZHENG 8A
Launch site
Wenchang Satellite Launch Center (WSC)
Object type
Payload
Rocket body
Debris
Shape & HBR
Box + 2 Pan, 2.1 m
Radar Cross Section
5.935 m², Large (>1 m²)

Expand to show TLE details & history
Last TLE update: 14 hours ago

TLE from 14 hours ago
0 HULIANWANG DIGUI-19
1 62979U 25030J   26168.73649892 -.00000086  00000-0  81262-4 0  9992
2 62979  50.0042 233.8008 0001025 175.1148 184.9734 13.29320247 65937
Epoch: 2026-06-17T17:40Z
TLE epoch observation values (Epoch: 2026-06-17T17:40:33.506Z)
Latitude
-0.00005°
Longitude
62.67125°
Altitude
1,150.603 km
Speed
7.278 km/s
True Right ascension
15h 35m 12s
True Declination
0° 00' 00"
Sunlit
Object was in full shadow at epoch
Visualization orbit readout
Latitude
Unknown
Longitude
Unknown
Altitude
Unknown
Speed
Unknown
Apparent Right ascension
Unknown
Apparent Declination
Unknown
Sunlit
N/A
Visualization observer readout
Local Sidereal Time
18:48:57
Azimuth
Unknown
Elevation
Unknown
Doppler factor
Unknown
Orbital elements
Apogee altitude
1,150.805 km
Perigee altitude
1,149.261 km
Semi-major axis
7,528.17 km
Eccentricity
0.0001
Inclination
50.0042°
RAAN
233.8008°
Arg. of periapsis
175.1148°
True anomaly
184.97238°
Mean anomaly
184.9734°
Eccentric anomaly
184.97289°
Mean motion
3.32284 °/min
Orbital period
108.34 mins
BSTAR
0.000081262
Loading maneuver chart data...
Computing Atmospheric mass density...
Loading historical data...
Loading historical data...
Loading historical data...
Loading historical data...
Loading historical data...
Loading historical data...
Loading historical data...

Documentation

Showing up to 5 results
|